Location: Creola (historical)
(38.1334°N, 100.5024°W)
Time: 06:14:07
(UTC+00:00)

COSMOS 2487 - Pass Details

Date: 18 October 2021
Orbit: 420 x 427 km, 74.7° (Epoch: 30 November)

Event Time Altitude Azimuth Distance (km) Brightness Sun altitude
Rises 12:23:57 0° 181° (S) 2,359 6.1 -6.7°
Maximum altitude 12:29:09 39° 103° (ESE) 644 4.0 -5.6°
Drops below altitude 10° 12:32:16 10° 33° (NNE) 1,509 5.4 -5.0°
Sets 12:34:24 0° 26° (NNE) 2,378 6.3 -4.6°
